N615S KBHM-KGSP

Flight info

Callsign N615S
Flight time 1h 11m
Altitude 21000
Route MRICA NELLO
Aircraft S22T/L-SDGRY/S

Departure

Time 2026-04-20 00:13
Airport Birmingham-Shuttlesworth International Airport (KBHM)

Arrival

Time 2026-04-20 01:24
Airport Greenville-Spartanburg International Airport (KGSP)
Time Latitude Longitude Altitude Speed Heading
2026-04-19 23:32 33.56587 -86.74236 631 ft 0 kts 166°
2026-04-20 00:04 33.56585 -86.74236 631 ft 1 kts 217°
2026-04-20 00:04 33.56590 -86.74258 632 ft 4 kts 297°
2026-04-20 00:05 33.56604 -86.74328 632 ft 12 kts 273°
2026-04-20 00:05 33.56641 -86.74430 631 ft 15 kts 275°
2026-04-20 00:05 33.56636 -86.74580 630 ft 13 kts 234°
2026-04-20 00:05 33.56526 -86.74589 627 ft 18 kts 180°
2026-04-20 00:06 33.56374 -86.74586 625 ft 21 kts 185°
2026-04-20 00:06 33.56191 -86.74590 624 ft 26 kts 180°
2026-04-20 00:06 33.55980 -86.74590 625 ft 29 kts 180°
2026-04-20 00:06 33.55776 -86.74591 628 ft 26 kts 178°
2026-04-20 00:07 33.55601 -86.74589 631 ft 22 kts 180°
2026-04-20 00:07 33.55448 -86.74591 635 ft 18 kts 183°
2026-04-20 00:07 33.55378 -86.74632 636 ft 0 kts 278°
2026-04-20 00:11 33.55381 -86.74654 635 ft 4 kts 274°
2026-04-20 00:11 33.55380 -86.74711 635 ft 6 kts 275°
2026-04-20 00:11 33.55404 -86.74721 634 ft 1 kts 357°
2026-04-20 00:12 33.55556 -86.74724 631 ft 50 kts
2026-04-20 00:12 33.56094 -86.74727 685 ft 89 kts 356°
2026-04-20 00:12 33.56721 -86.74731 925 ft 92 kts 360°
2026-04-20 00:12 33.57372 -86.74729 1145 ft 99 kts 358°
2026-04-20 00:13 33.58020 -86.74567 1435 ft 100 kts 35°
2026-04-20 00:13 33.58342 -86.73791 1617 ft 114 kts 82°
2026-04-20 00:13 33.58379 -86.72804 1808 ft 122 kts 84°
2026-04-20 00:13 33.58407 -86.71777 2016 ft 126 kts 85°
2026-04-20 00:14 33.58433 -86.70724 2235 ft 128 kts 85°
2026-04-20 00:14 33.58457 -86.69653 2482 ft 128 kts 86°
2026-04-20 00:14 33.58447 -86.68592 2728 ft 128 kts 85°
2026-04-20 00:14 33.58455 -86.67512 2973 ft 129 kts 84°
2026-04-20 00:15 33.58441 -86.66433 3223 ft 129 kts 85°
2026-04-20 00:15 33.58665 -86.65461 3486 ft 121 kts 54°
2026-04-20 00:15 33.59100 -86.64592 3744 ft 119 kts 44°
2026-04-20 00:15 33.59662 -86.63882 4007 ft 118 kts 39°
2026-04-20 00:16 33.60241 -86.63195 4260 ft 118 kts 37°
2026-04-20 00:16 33.60832 -86.62513 4499 ft 117 kts 36°
2026-04-20 00:16 33.61424 -86.61829 4735 ft 117 kts 37°
2026-04-20 00:16 33.62017 -86.61146 4922 ft 121 kts 36°
2026-04-20 00:17 33.62635 -86.60437 5087 ft 124 kts 37°
2026-04-20 00:17 33.63273 -86.59704 5266 ft 128 kts 37°
2026-04-20 00:17 33.63921 -86.58961 5475 ft 128 kts 37°
2026-04-20 00:17 33.64563 -86.58226 5702 ft 127 kts 36°
2026-04-20 00:18 33.65196 -86.57503 5927 ft 127 kts 36°
2026-04-20 00:18 33.65841 -86.56763 6169 ft 128 kts 37°
2026-04-20 00:18 33.66479 -86.56031 6413 ft 128 kts 36°
2026-04-20 00:18 33.67120 -86.55293 6659 ft 128 kts 36°
2026-04-20 00:19 33.67759 -86.54562 6893 ft 128 kts 36°
2026-04-20 00:19 33.68411 -86.53812 7131 ft 129 kts 36°
2026-04-20 00:19 33.69057 -86.53073 7356 ft 130 kts 36°
2026-04-20 00:19 33.69712 -86.52316 7581 ft 132 kts 36°
2026-04-20 00:20 33.70375 -86.51556 7806 ft 133 kts 36°
2026-04-20 00:20 33.71055 -86.50777 8034 ft 133 kts 35°
2026-04-20 00:20 33.71721 -86.50011 8264 ft 134 kts 36°
2026-04-20 00:20 33.72393 -86.49237 8483 ft 135 kts 36°
2026-04-20 00:21 33.73074 -86.48450 8704 ft 136 kts 36°
2026-04-20 00:21 33.73758 -86.47665 8922 ft 137 kts 36°
2026-04-20 00:21 33.74456 -86.46869 9140 ft 137 kts 35°
2026-04-20 00:21 33.75154 -86.46072 9356 ft 138 kts 36°
2026-04-20 00:22 33.75863 -86.45255 9572 ft 139 kts 36°
2026-04-20 00:22 33.76570 -86.44438 9783 ft 141 kts 35°
2026-04-20 00:22 33.77284 -86.43617 9989 ft 142 kts 35°
2026-04-20 00:22 33.77998 -86.42797 10198 ft 144 kts 34°
2026-04-20 00:23 33.78728 -86.41949 10364 ft 149 kts 35°
2026-04-20 00:23 33.79486 -86.41074 10524 ft 152 kts 35°
2026-04-20 00:23 33.80254 -86.40190 10694 ft 154 kts 34°
2026-04-20 00:23 33.81033 -86.39295 10879 ft 155 kts 34°
2026-04-20 00:24 33.81822 -86.38387 11061 ft 157 kts 34°
2026-04-20 00:24 33.82618 -86.37469 11257 ft 158 kts 34°
2026-04-20 00:24 33.83424 -86.36540 11454 ft 159 kts 34°
2026-04-20 00:24 33.84230 -86.35610 11650 ft 161 kts 33°
2026-04-20 00:25 33.85044 -86.34671 11839 ft 162 kts 34°
2026-04-20 00:25 33.85867 -86.33720 12008 ft 164 kts 34°
2026-04-20 00:25 33.86700 -86.32760 12178 ft 165 kts 33°
2026-04-20 00:25 33.87535 -86.31795 12347 ft 166 kts 33°
2026-04-20 00:26 33.88380 -86.30819 12515 ft 168 kts 33°
2026-04-20 00:26 33.89150 -86.29717 12674 ft 180 kts 56°
2026-04-20 00:26 33.89655 -86.28316 12863 ft 181 kts 58°
2026-04-20 00:26 33.90147 -86.26897 13038 ft 182 kts 59°
2026-04-20 00:27 33.90629 -86.25481 13211 ft 183 kts 59°
2026-04-20 00:27 33.91108 -86.24059 13383 ft 184 kts 59°
2026-04-20 00:27 33.91592 -86.22614 13557 ft 185 kts 59°
2026-04-20 00:27 33.92078 -86.21159 13732 ft 186 kts 59°
2026-04-20 00:28 33.92559 -86.19715 13902 ft 186 kts 59°
2026-04-20 00:28 33.93045 -86.18253 14073 ft 187 kts 59°
2026-04-20 00:28 33.93525 -86.16806 14240 ft 188 kts 59°
2026-04-20 00:28 33.94013 -86.15334 14409 ft 189 kts 59°
2026-04-20 00:29 33.94499 -86.13869 14578 ft 190 kts 59°
2026-04-20 00:29 33.94985 -86.12400 14752 ft 190 kts 59°
2026-04-20 00:29 33.95475 -86.10920 14927 ft 191 kts 59°
2026-04-20 00:29 33.95971 -86.09420 15103 ft 192 kts 59°
2026-04-20 00:30 33.96464 -86.07928 15277 ft 193 kts 59°
2026-04-20 00:30 33.96961 -86.06425 15450 ft 193 kts 59°
2026-04-20 00:30 33.97460 -86.04915 15621 ft 194 kts 59°
2026-04-20 00:30 33.97962 -86.03396 15793 ft 195 kts 58°
2026-04-20 00:31 33.98466 -86.01866 15966 ft 196 kts 58°
2026-04-20 00:31 33.98977 -86.00319 16140 ft 197 kts 58°
2026-04-20 00:31 33.99484 -85.98781 16311 ft 198 kts 58°
2026-04-20 00:31 33.99994 -85.97235 16482 ft 198 kts 58°
2026-04-20 00:32 34.00512 -85.95661 16655 ft 199 kts 58°
2026-04-20 00:32 34.01027 -85.94097 16825 ft 200 kts 58°
2026-04-20 00:32 34.01548 -85.92516 16931 ft 204 kts 58°
2026-04-20 00:32 34.02077 -85.90906 17043 ft 207 kts 58°
2026-04-20 00:33 34.02615 -85.89269 17176 ft 208 kts 58°
2026-04-20 00:33 34.03152 -85.87634 17311 ft 209 kts 58°
2026-04-20 00:33 34.03688 -85.86000 17445 ft 209 kts 58°
2026-04-20 00:33 34.04229 -85.84352 17580 ft 210 kts 58°
2026-04-20 00:34 34.04766 -85.82714 17715 ft 210 kts 58°
2026-04-20 00:34 34.05310 -85.81054 17852 ft 211 kts 58°
2026-04-20 00:34 34.05853 -85.79398 17987 ft 212 kts 58°
2026-04-20 00:34 34.06398 -85.77734 18122 ft 213 kts 58°
2026-04-20 00:35 34.06946 -85.76060 18255 ft 214 kts 58°
2026-04-20 00:35 34.07498 -85.74373 18382 ft 214 kts 58°
2026-04-20 00:35 34.08052 -85.72678 18508 ft 215 kts 58°
2026-04-20 00:35 34.08604 -85.70988 18632 ft 216 kts 58°
2026-04-20 00:36 34.09160 -85.69284 18756 ft 217 kts 58°
2026-04-20 00:36 34.09715 -85.67586 18873 ft 218 kts 58°
2026-04-20 00:36 34.10276 -85.65866 18994 ft 219 kts 59°
2026-04-20 00:36 34.10842 -85.64130 19117 ft 220 kts 59°
2026-04-20 00:37 34.11408 -85.62392 19240 ft 221 kts 59°
2026-04-20 00:37 34.11970 -85.60666 19361 ft 222 kts 59°
2026-04-20 00:37 34.12544 -85.58903 19483 ft 223 kts 59°
2026-04-20 00:37 34.13117 -85.57143 19604 ft 224 kts 59°
2026-04-20 00:38 34.13694 -85.55368 19724 ft 225 kts 59°
2026-04-20 00:38 34.14271 -85.53590 19844 ft 226 kts 59°
2026-04-20 00:38 34.14847 -85.51817 19964 ft 227 kts 59°
2026-04-20 00:38 34.15432 -85.50015 20085 ft 228 kts 59°
2026-04-20 00:39 34.16010 -85.48232 20203 ft 229 kts 59°
2026-04-20 00:39 34.16592 -85.46436 20319 ft 230 kts 59°
2026-04-20 00:39 34.17183 -85.44612 20436 ft 231 kts 59°
2026-04-20 00:39 34.17771 -85.42796 20551 ft 232 kts 59°
2026-04-20 00:40 34.18369 -85.40948 20670 ft 233 kts 59°
2026-04-20 00:40 34.18959 -85.39124 20787 ft 234 kts 59°
2026-04-20 00:40 34.19562 -85.37257 20906 ft 235 kts 59°
2026-04-20 00:40 34.20158 -85.35411 21022 ft 236 kts 60°
2026-04-20 00:41 34.20759 -85.33549 21117 ft 237 kts 60°
2026-04-20 00:41 34.21366 -85.31669 21219 ft 238 kts 60°
2026-04-20 00:41 34.21983 -85.29757 21247 ft 243 kts 61°
2026-04-20 00:41 34.22606 -85.27824 21252 ft 248 kts 61°
2026-04-20 00:42 34.23238 -85.25861 21246 ft 251 kts 61°
2026-04-20 00:42 34.23874 -85.23882 21243 ft 253 kts 61°
2026-04-20 00:42 34.24516 -85.21886 21241 ft 254 kts 61°
2026-04-20 00:42 34.25164 -85.19871 21240 ft 255 kts 61°
2026-04-20 00:43 34.25799 -85.17892 21240 ft 256 kts 61°
2026-04-20 00:43 34.26440 -85.15892 21239 ft 256 kts 61°
2026-04-20 00:43 34.27083 -85.13886 21237 ft 253 kts 61°
2026-04-20 00:43 34.27718 -85.11907 21237 ft 251 kts 61°
2026-04-20 00:44 34.28345 -85.09950 21238 ft 250 kts 61°
2026-04-20 00:44 34.28977 -85.07975 21239 ft 249 kts 61°
2026-04-20 00:44 34.29602 -85.06019 21240 ft 249 kts 61°
2026-04-20 00:44 34.30230 -85.04057 21241 ft 248 kts 61°
2026-04-20 00:45 34.30853 -85.02107 21241 ft 248 kts 61°
2026-04-20 00:45 34.31480 -85.00144 21242 ft 248 kts 61°
2026-04-20 00:45 34.32102 -84.98194 21243 ft 248 kts 61°
2026-04-20 00:45 34.32733 -84.96216 21245 ft 248 kts 61°
2026-04-20 00:46 34.33356 -84.94259 21250 ft 249 kts 61°
2026-04-20 00:46 34.33980 -84.92301 21254 ft 249 kts 61°
2026-04-20 00:46 34.34605 -84.90337 21255 ft 249 kts 61°
2026-04-20 00:46 34.35235 -84.88356 21257 ft 250 kts 61°
2026-04-20 00:47 34.35858 -84.86393 21254 ft 250 kts 61°
2026-04-20 00:47 34.36489 -84.84407 21253 ft 250 kts 61°
2026-04-20 00:47 34.37114 -84.82438 21254 ft 250 kts 61°
2026-04-20 00:47 34.37740 -84.80465 21255 ft 250 kts 61°
2026-04-20 00:48 34.38361 -84.78506 21255 ft 250 kts 61°
2026-04-20 00:48 34.38992 -84.76516 21256 ft 250 kts 61°
2026-04-20 00:48 34.39610 -84.74560 21256 ft 250 kts 61°
2026-04-20 00:48 34.40240 -84.72570 21257 ft 250 kts 61°
2026-04-20 00:49 34.40860 -84.70611 21259 ft 250 kts 61°
2026-04-20 00:49 34.41484 -84.68633 21260 ft 250 kts 61°
2026-04-20 00:49 34.42112 -84.66646 21260 ft 250 kts 61°
2026-04-20 00:49 34.42732 -84.64683 21260 ft 250 kts 62°
2026-04-20 00:50 34.43358 -84.62695 21259 ft 251 kts 62°
2026-04-20 00:50 34.43980 -84.60721 21257 ft 251 kts 62°
2026-04-20 00:50 34.44611 -84.58717 21256 ft 251 kts 62°
2026-04-20 00:50 34.45237 -84.56728 21254 ft 251 kts 62°
2026-04-20 00:51 34.45859 -84.54752 21253 ft 251 kts 62°
2026-04-20 00:51 34.46488 -84.52750 21253 ft 251 kts 62°
2026-04-20 00:51 34.47107 -84.50778 21254 ft 251 kts 62°
2026-04-20 00:51 34.47731 -84.48792 21254 ft 251 kts 62°
2026-04-20 00:52 34.48358 -84.46792 21257 ft 252 kts 62°
2026-04-20 00:52 34.48983 -84.44798 21258 ft 252 kts 62°
2026-04-20 00:52 34.49611 -84.42793 21259 ft 252 kts 62°
2026-04-20 00:52 34.50110 -84.40714 21261 ft 255 kts 71°
2026-04-20 00:53 34.50524 -84.38625 21257 ft 255 kts 71°
2026-04-20 00:53 34.50930 -84.36528 21256 ft 255 kts 71°
2026-04-20 00:53 34.51338 -84.34395 21252 ft 255 kts 72°
2026-04-20 00:53 34.51736 -84.32301 21245 ft 255 kts 72°
2026-04-20 00:54 34.52137 -84.30185 21241 ft 254 kts 72°
2026-04-20 00:54 34.52532 -84.28096 21242 ft 254 kts 72°
2026-04-20 00:54 34.52929 -84.25991 21243 ft 253 kts 72°
2026-04-20 00:54 34.53323 -84.23907 21244 ft 253 kts 72°
2026-04-20 00:55 34.53720 -84.21798 21253 ft 253 kts 72°
2026-04-20 00:55 34.54113 -84.19713 21253 ft 254 kts 72°
2026-04-20 00:55 34.54510 -84.17598 21253 ft 254 kts 72°
2026-04-20 00:55 34.54906 -84.15492 21251 ft 255 kts 72°
2026-04-20 00:56 34.55300 -84.13387 21249 ft 255 kts 72°
2026-04-20 00:56 34.55696 -84.11276 21248 ft 255 kts 72°
2026-04-20 00:56 34.56088 -84.09187 21248 ft 255 kts 72°
2026-04-20 00:56 34.56485 -84.07061 21248 ft 255 kts 72°
2026-04-20 00:57 34.56876 -84.04971 21247 ft 255 kts 72°
2026-04-20 00:57 34.57270 -84.02860 21246 ft 255 kts 72°
2026-04-20 00:57 34.57662 -84.00756 21245 ft 255 kts 72°
2026-04-20 00:57 34.58055 -83.98647 21243 ft 255 kts 72°
2026-04-20 00:58 34.58452 -83.96514 21242 ft 255 kts 72°
2026-04-20 00:58 34.58847 -83.94392 21114 ft 262 kts 72°
2026-04-20 00:58 34.59258 -83.92178 20899 ft 267 kts 73°
2026-04-20 00:58 34.59669 -83.89961 20680 ft 269 kts 73°
2026-04-20 00:59 34.60080 -83.87741 20450 ft 269 kts 73°
2026-04-20 00:59 34.60498 -83.85484 20214 ft 270 kts 73°
2026-04-20 00:59 34.60909 -83.83266 19983 ft 269 kts 73°
2026-04-20 00:59 34.61319 -83.81046 19749 ft 269 kts 73°
2026-04-20 01:00 34.61731 -83.78809 19505 ft 268 kts 73°
2026-04-20 01:00 34.62135 -83.76615 19265 ft 267 kts 72°
2026-04-20 01:00 34.62545 -83.74387 19019 ft 265 kts 72°
2026-04-20 01:00 34.62948 -83.72201 18775 ft 264 kts 72°
2026-04-20 01:01 34.63344 -83.70044 18534 ft 262 kts 72°
2026-04-20 01:01 34.63745 -83.67857 18288 ft 261 kts 72°
2026-04-20 01:01 34.64140 -83.65703 18043 ft 259 kts 72°
2026-04-20 01:01 34.64530 -83.63573 17851 ft 255 kts 72°
2026-04-20 01:02 34.64916 -83.61464 17722 ft 253 kts 72°
2026-04-20 01:02 34.65296 -83.59386 17595 ft 251 kts 72°
2026-04-20 01:02 34.65679 -83.57289 17466 ft 250 kts 72°
2026-04-20 01:02 34.66053 -83.55242 17341 ft 248 kts 72°
2026-04-20 01:03 34.66427 -83.53188 17220 ft 247 kts 72°
2026-04-20 01:03 34.66804 -83.51117 17098 ft 246 kts 72°
2026-04-20 01:03 34.67175 -83.49080 16979 ft 246 kts 72°
2026-04-20 01:03 34.67546 -83.47036 16861 ft 245 kts 72°
2026-04-20 01:04 34.67915 -83.45003 16742 ft 245 kts 72°
2026-04-20 01:04 34.68281 -83.42985 16624 ft 244 kts 72°
2026-04-20 01:04 34.68649 -83.40950 16505 ft 244 kts 72°
2026-04-20 01:04 34.69016 -83.38924 16387 ft 243 kts 72°
2026-04-20 01:05 34.69383 -83.36891 16277 ft 243 kts 72°
2026-04-20 01:05 34.69744 -83.34892 16227 ft 239 kts 72°
2026-04-20 01:05 34.70103 -83.32903 16142 ft 238 kts 72°
2026-04-20 01:05 34.70460 -83.30924 16058 ft 237 kts 72°
2026-04-20 01:06 34.70812 -83.28965 15972 ft 237 kts 72°
2026-04-20 01:06 34.71166 -83.26999 15887 ft 236 kts 72°
2026-04-20 01:06 34.71520 -83.25033 15801 ft 235 kts 72°
2026-04-20 01:06 34.71867 -83.23094 15719 ft 235 kts 72°
2026-04-20 01:07 34.72220 -83.21127 15640 ft 234 kts 72°
2026-04-20 01:07 34.72568 -83.19184 15562 ft 234 kts 72°
2026-04-20 01:07 34.72918 -83.17233 15484 ft 234 kts 72°
2026-04-20 01:07 34.73264 -83.15298 15407 ft 234 kts 72°
2026-04-20 01:08 34.73611 -83.13351 15331 ft 233 kts 72°
2026-04-20 01:08 34.73956 -83.11420 15257 ft 233 kts 72°
2026-04-20 01:08 34.74301 -83.09486 15182 ft 233 kts 72°
2026-04-20 01:08 34.74648 -83.07535 15106 ft 232 kts 72°
2026-04-20 01:09 34.75004 -83.05539 15021 ft 232 kts 72°
2026-04-20 01:09 34.75346 -83.03616 14828 ft 236 kts 72°
2026-04-20 01:09 34.75697 -83.01639 14635 ft 238 kts 72°
2026-04-20 01:09 34.76048 -82.99661 14437 ft 239 kts 72°
2026-04-20 01:10 34.76399 -82.97678 14232 ft 239 kts 72°
2026-04-20 01:10 34.77107 -82.93677 13817 ft 239 kts 72°
2026-04-20 01:10 34.77458 -82.91692 13568 ft 241 kts 73°
2026-04-20 01:11 34.77812 -82.89685 13195 ft 242 kts 73°
2026-04-20 01:11 34.78168 -82.87666 12822 ft 241 kts 73°
2026-04-20 01:11 34.78516 -82.85693 12455 ft 240 kts 73°
2026-04-20 01:11 34.78870 -82.83675 12079 ft 239 kts 73°
2026-04-20 01:12 34.79212 -82.81728 11701 ft 234 kts 73°
2026-04-20 01:12 34.79553 -82.79785 11318 ft 229 kts 73°
2026-04-20 01:12 34.79884 -82.77899 10942 ft 226 kts 72°
2026-04-20 01:12 34.80209 -82.76044 10587 ft 224 kts 72°
2026-04-20 01:13 34.80536 -82.74172 10237 ft 222 kts 72°
2026-04-20 01:13 34.80856 -82.72346 9891 ft 220 kts 73°
2026-04-20 01:13 34.81177 -82.70509 9540 ft 219 kts 73°
2026-04-20 01:13 34.81493 -82.68701 9176 ft 217 kts 73°
2026-04-20 01:14 34.81807 -82.66897 8800 ft 215 kts 73°
2026-04-20 01:14 34.82118 -82.65118 8426 ft 213 kts 73°
2026-04-20 01:14 34.82426 -82.63347 8049 ft 211 kts 73°
2026-04-20 01:14 34.82727 -82.61616 7675 ft 209 kts 73°
2026-04-20 01:15 34.83030 -82.59874 7294 ft 206 kts 73°
2026-04-20 01:15 34.83325 -82.58179 6919 ft 204 kts 73°
2026-04-20 01:15 34.83619 -82.56480 6539 ft 202 kts 73°
2026-04-20 01:15 34.83911 -82.54799 6155 ft 201 kts 73°
2026-04-20 01:16 34.84195 -82.53157 5777 ft 199 kts 74°
2026-04-20 01:16 34.84482 -82.51503 5395 ft 198 kts 74°
2026-04-20 01:16 34.84769 -82.49847 5051 ft 194 kts 74°
2026-04-20 01:16 34.85036 -82.48294 4988 ft 177 kts 74°
2026-04-20 01:17 34.85281 -82.46877 4986 ft 166 kts 73°
2026-04-20 01:17 34.85518 -82.45512 4991 ft 164 kts 73°
2026-04-20 01:17 34.85753 -82.44147 4992 ft 162 kts 73°
2026-04-20 01:17 34.85984 -82.42800 4987 ft 153 kts 73°
2026-04-20 01:18 34.86182 -82.41603 4971 ft 136 kts 79°
2026-04-20 01:18 34.86039 -82.40459 4789 ft 137 kts 98°
2026-04-20 01:18 34.85804 -82.39307 4556 ft 140 kts 100°
2026-04-20 01:18 34.85504 -82.38183 4371 ft 140 kts 105°
2026-04-20 01:19 34.85194 -82.37075 4217 ft 137 kts 102°
2026-04-20 01:19 34.84924 -82.35947 4045 ft 136 kts 98°
2026-04-20 01:19 34.84698 -82.34839 3914 ft 134 kts 99°
2026-04-20 01:19 34.84454 -82.33722 3738 ft 135 kts 98°
2026-04-20 01:20 34.84306 -82.32603 3540 ft 135 kts 89°
2026-04-20 01:20 34.84270 -82.31472 3376 ft 127 kts 83°
2026-04-20 01:20 34.84288 -82.30451 3062 ft 120 kts 80°
2026-04-20 01:20 34.84378 -82.29483 2845 ft 103 kts 70°
2026-04-20 01:21 34.84533 -82.28652 2657 ft 98 kts 65°
2026-04-20 01:21 34.84718 -82.27891 2492 ft 94 kts 64°
2026-04-20 01:21 34.84935 -82.27119 2280 ft 95 kts 60°
2026-04-20 01:21 34.85210 -82.26384 2094 ft 93 kts 56°
2026-04-20 01:22 34.85500 -82.25691 1923 ft 91 kts 55°
2026-04-20 01:22 34.85830 -82.25081 1756 ft 76 kts 49°
2026-04-20 01:22 34.86159 -82.24623 1598 ft 69 kts 40°
2026-04-20 01:22 34.86531 -82.24226 1449 ft 70 kts 34°
2026-04-20 01:23 34.86929 -82.23893 1332 ft 68 kts 31°
2026-04-20 01:23 34.87327 -82.23587 1221 ft 67 kts 28°
2026-04-20 01:23 34.87721 -82.23284 1108 ft 65 kts 29°
2026-04-20 01:23 34.88119 -82.22988 1026 ft 68 kts 27°
2026-04-20 01:24 34.88533 -82.22676 967 ft 69 kts 29°
2026-04-20 01:24 34.88934 -82.22375 934 ft 57 kts 30°
2026-04-20 01:24 34.89209 -82.22160 940 ft 38 kts 29°
2026-04-20 01:24 34.89392 -82.22018 942 ft 24 kts 43°
2026-04-20 01:25 34.89470 -82.21898 943 ft 12 kts 60°
2026-04-20 01:25 34.89505 -82.21815 943 ft 8 kts 61°
2026-04-20 01:25 34.89542 -82.21737 943 ft 11 kts 56°
2026-04-20 01:25 34.89591 -82.21642 943 ft 14 kts 49°
2026-04-20 01:26 34.89678 -82.21566 945 ft 15 kts 30°
2026-04-20 01:26 34.89775 -82.21493 947 ft 16 kts 31°
2026-04-20 01:26 34.89869 -82.21418 949 ft 16 kts 30°
2026-04-20 01:26 34.89927 -82.21336 950 ft 10 kts 116°
2026-04-20 01:27 34.89898 -82.21233 949 ft 17 kts 73°
2026-04-20 01:27 34.89907 -82.21182 949 ft 0 kts 128°
2026-04-20 01:27 34.89901 -82.21169 949 ft 5 kts 104°
2026-04-20 01:27 34.89900 -82.21162 949 ft 0 kts 90°